Location: Villingen
(48.0639°N, 8.4609°E)
Time: 19:54:41
(UTC+02:00)

ISS - Pass Details

Date: 23 March 2017
Orbit: 399 x 409 km, 51.6° (Epoch: 29 March)

Event Time Altitude Azimuth Distance (km) Brightness Sun altitude
Exits shadow 04:29:56 21° 162° (SSE) 995 -2.0 -19.1°
Drops below altitude 10° 04:31:17 10° 148° (SSE) 1,470 -0.9 -18.9°
Sets 04:33:28 0° 139° (SE) 2,328 0.3 -18.6°
